Location: Cabrera Baja
(40.4089°N, 4.3354°W)
Time: 03:29:21
(UTC+00:00)

Meteor 1-20 Rocket - Pass Details

Date: 14 July 2020
Orbit: 820 x 891 km, 81.2° (Epoch: 03 August)

Event Time Altitude Azimuth Distance (km) Brightness Sun altitude
Exits shadow 00:58:23 67° 107° (ESE) 917 4.2 -27.4°
Maximum altitude 00:58:33 67° 96° (E) 915 4.3 -27.4°
Drops below altitude 10° 01:04:09 10° 15° (NNE) 2,500 7.6 -27.2°
Sets 01:06:37 0° 13° (NNE) 3,452 8.7 -27.1°
